[[{"header":{"parameterUnit":"m.s-1","parameterCategory":1,"la1":30.2991,"la2":30.254,"lo1":-89.0895,"lo2":-89.0444,"dy":0.0017,"dx":0.0017,"nx":28,"ny":28,"refTime":"2023-10-12T09:00:00:Z","depth":0,"parameterNumber":2,"parameterNumberName":"U-component_of_WINDS"},"data":[0,0,0,0,0,0,0,0,0,0,0,0,0,0,0,0,0,0,0,0,0,0,0,0,0,0,0,0,0,0,0,0,0,0,0,0,0,0,0,0,0,0,0,0,0,0,0,0,0,0,0,0,0,0,0,0,0,0,-0.4462,-0.4462,0,-0.4512,-0.4513,-0.4513,-0.4527,-0.4526,-0.4526,-0.4526,-0.4578,-0.4579,-0.4581,0,0,0,0,0,0,0,0,0,0,0,0,0,-0.4378,-0.4379,-0.4462,-0.4462,-0.4463,-0.4512,-0.4513,-0.4513,-0.4527,-0.4526,-0.4526,-0.4526,-0.4577,-0.4579,-0.4581,0,0,0,0,0,0,0,0,0,0,0,0,0,-0.442,-0.438,-0.4462,-0.4476,-0.4477,-0.4512,-0.4513,-0.4513,-0.4527,-0.4526,-0.4526,-0.4525,-0.4577,-0.4579,-0.4581,-0.4606,0,0,-0.4589,-0.459,0,0,0,0,0,0,0,0,-0.4417,-0.4423,-0.4473,-0.4475,-0.4477,-0.4513,-0.4502,-0.4544,-0.4527,-0.4508,-0.4526,-0.4525,-0.4556,-0.4561,-0.4571,-0.4608,-0.461,-0.4589,-0.4591,-0.4592,-0.4593,0,0,0,0,0,0,0,-0.4414,-0.4421,-0.4482,-0.4474,-0.4476,-0.4479,-0.4485,-0.451,-0.4534,-0.451,-0.4511,-0.4516,-0.4557,-0.4569,-0.4572,-0.4611,-0.4589,-0.4591,-0.4593,-0.4594,-0.467,-0.4671,0,0,0,0,0,0,-0.4409,-0.4418,-0.448,-0.4483,-0.4445,-0.4481,-0.4487,-0.4502,-0.4534,-0.4538,-0.4517,-0.4517,-0.4565,-0.4569,-0.4574,-0.4605,-0.4592,-0.4594,-0.4596,-0.467,-0.467,-0.4671,0,0,0,0,0,0,-0.4407,-0.4415,-0.4478,-0.4451,-0.4459,-0.4483,-0.4499,-0.4503,-0.4514,-0.4539,-0.4544,-0.4524,-0.4564,-0.4571,-0.4598,-0.4607,-0.4595,-0.4598,-0.4669,-0.467,-0.4671,-0.4666,0,0,0,0,0,0,-0.4405,-0.4414,-0.4423,-0.4451,-0.4461,-0.4501,-0.45,-0.4504,-0.4518,-0.4519,-0.4547,-0.4551,-0.4564,-0.4594,-0.46,-0.461,-0.46,-0.4668,-0.467,-0.467,-0.4665,-0.4666,-0.4667,0,0,0,0,0,-0.4402,-0.442,-0.4424,-0.4431,-0.4473,-0.4501,-0.4507,-0.4521,-0.4519,-0.4528,-0.4545,-0.455,-0.4604,-0.4596,-0.4604,-0.4614,-0.4668,-0.4669,-0.467,-0.4665,-0.4666,-0.4667,0,0,0,0,0,0,-0.4393,-0.4424,-0.4428,-0.4456,-0.4476,-0.4503,-0.4516,-0.4522,-0.4543,-0.4543,-0.456,-0.4567,-0.4592,-0.4606,-0.4597,-0.4639,-0.4636,-0.4639,-0.4629,-0.4631,-0.4632,-0.4628,-0.4602,0,0,0,0,0,-0.4394,-0.4414,-0.444,-0.4462,-0.4472,-0.4492,-0.4505,-0.4515,-0.4536,-0.4544,-0.4562,-0.4583,-0.4604,-0.4618,-0.464,-0.4667,-0.4673,-0.4678,-0.4679,-0.4679,-0.4682,-0.4697,-0.4699,-0.4675,-0.4675,-0.4675,0,0,-0.4397,-0.4417,-0.4428,-0.4461,-0.4478,-0.4498,-0.4499,-0.4521,-0.4536,-0.4548,-0.4574,-0.4588,-0.4612,-0.4639,-0.4652,-0.4651,-0.4689,-0.4681,-0.4681,-0.4683,-0.4698,-0.47,-0.4702,-0.4676,-0.4676,-0.4675,0,0,-0.4413,-0.443,-0.445,-0.4466,-0.4491,-0.4504,-0.4508,-0.4535,-0.4545,-0.4571,-0.458,-0.4599,-0.4635,-0.4652,-0.4665,-0.4686,-0.4692,-0.4693,-0.4698,-0.4712,-0.4714,-0.4716,-0.4724,-0.4726,-0.4695,-0.4695,-0.4695,0,-0.4414,-0.4445,-0.4459,-0.4481,-0.4495,-0.4505,-0.4526,-0.4541,-0.4571,-0.4581,-0.4579,-0.4625,-0.4642,-0.4673,-0.4678,-0.4688,-0.4694,-0.469,-0.4713,-0.4715,-0.4717,-0.4724,-0.4727,-0.4695,-0.4695,-0.4695,-0.4695,0,-0.4444,-0.4466,-0.4479,-0.4507,-0.4523,-0.4544,-0.4561,-0.4575,-0.4583,-0.4596,-0.4623,-0.4644,-0.4669,-0.4677,-0.4685,-0.4709,-0.4708,-0.4709,-0.4707,-0.4719,-0.4726,-0.4729,-0.4695,-0.4695,-0.4695,-0.4695,0,0,-0.4457,-0.4493,-0.4497,-0.451,-0.4538,-0.4554,-0.4575,-0.46,-0.4611,-0.4632,-0.465,-0.468,-0.4681,-0.4696,-0.4706,-0.4719,-0.4734,-0.4719,-0.472,-0.4721,-0.4762,-0.476,-0.4763,-0.4738,-0.4739,-0.4739,-0.4759,0,-0.4476,-0.4514,-0.4527,-0.4558,-0.4578,-0.4588,-0.4606,-0.4625,-0.4638,-0.4656,-0.467,-0.4692,-0.4692,-0.4701,-0.4714,-0.473,-0.4743,-0.4728,-0.4755,-0.4756,-0.4749,-0.4767,-0.4766,-0.4784,-0.4762,-0.4763,-0.4763,0,-0.4504,-0.4524,-0.4557,-0.4581,-0.459,-0.4606,-0.463,-0.4647,-0.4668,-0.4677,-0.4693,-0.4702,-0.4724,-0.472,-0.475,-0.474,-0.4752,-0.4761,-0.4762,-0.4766,-0.476,-0.4771,-0.479,-0.4793,-0.4768,-0.4767,-0.4767,0,-0.451,-0.4545,-0.4569,-0.458,-0.4609,-0.462,-0.4633,-0.4654,-0.4667,-0.4688,-0.4697,-0.4719,-0.4732,-0.4749,-0.4764,-0.4759,-0.4793,-0.479,-0.48,-0.48,-0.4807,-0.4807,-0.4829,-0.4815,-0.4814,-0.4814,-0.4814,0,-0.453,-0.455,-0.4572,-0.4587,-0.4609,-0.4624,-0.4646,-0.4659,-0.4677,-0.4695,-0.4705,-0.4721,-0.474,-0.4758,-0.477,-0.4793,-0.4799,-0.4806,-0.4809,-0.4805,-0.4804,-0.4813,-0.4813,-0.4815,-0.4815,-0.4815,-0.4815,0,-0.454,-0.4556,-0.4583,-0.4608,-0.4615,-0.463,-0.4652,-0.4667,-0.4679,-0.4701,-0.4707,-0.4728,-0.475,-0.4766,-0.4795,-0.4803,-0.4828,-0.4831,-0.4821,-0.4822,-0.4832,-0.4831,-0.4861,-0.4866,-0.4848,-0.4848,-0.4848,0,-0.4552,-0.4568,-0.4594,-0.4607,-0.4619,-0.4639,-0.4653,-0.4668,-0.4682,-0.4707,-0.4719,-0.4741,-0.4761,-0.4796,-0.4813,-0.4835,-0.4839,-0.4848,-0.4842,-0.4838,-0.4839,-0.4838,-0.4839,-0.4849,-0.4849,-0.4849,-0.4849,0,-0.4572,-0.4579,-0.4598,-0.462,-0.4636,-0.4655,-0.4673,-0.4682,-0.4701,-0.4716,-0.4739,-0.4754,-0.4783,-0.4805,-0.4829,-0.4842,-0.4849,-0.485,-0.4854,-0.4851,-0.4844,-0.4848,-0.4823,-0.485,-0.485,-0.485,-0.485,-0.485,-0.4584,-0.4598,-0.4618,-0.4639,-0.4655,-0.4671,-0.4686,-0.4701,-0.472,-0.4745,-0.4752,-0.4776,-0.4796,-0.4829,-0.4842,-0.486,-0.486,-0.4865,-0.4867,-0.4868,-0.4868,-0.4841,-0.4865,-0.4865,-0.4865,-0.4865,-0.4865,0,-0.4604,-0.4617,-0.4637,-0.4662,-0.4678,-0.4682,-0.4703,-0.4716,-0.4737,-0.4755,-0.4774,-0.4799,-0.4821,-0.484,-0.4862,-0.4874,-0.4877,-0.4879,-0.4878,-0.4881,-0.4867,-0.4861,-0.4876,-0.4876,-0.4876,-0.4876,-0.4876,-0.4876,-0.4616,-0.464,-0.4649,-0.468,-0.4694,-0.4716,-0.4728,-0.4743,-0.4758,-0.4786,-0.4804,-0.4816,-0.4834,-0.4858,-0.4878,-0.4883,-0.4891,-0.4892,-0.4898,-0.4884,-0.4882,-0.4881,-0.4876,-0.4893,-0.4894,-0.4911,-0.4911,-0.4911]},{"header":{"parameterUnit":"m.s-1","parameterCategory":1,"la1":30.2991,"la2":30.254,"lo1":-89.0895,"lo2":-89.0444,"dy":0.0017,"dx":0.0017,"nx":28,"ny":28,"refTime":"2023-10-12T09:00:00:Z","depth":0,"parameterNumber":3,"parameterNumberName":"V-component_of_WINDS"},"data":[0,0,0,0,0,0,0,0,0,0,0,0,0,0,0,0,0,0,0,0,0,0,0,0,0,0,0,0,0,0,0,0,0,0,0,0,0,0,0,0,0,0,0,0,0,0,0,0,0,0,0,0,0,0,0,0,0,0,-5.0385,-5.0386,0,-5.0434,-5.0435,-5.0435,-5.0374,-5.0372,-5.0369,-5.0367,-5.0413,-5.0417,-5.042,0,0,0,0,0,0,0,0,0,0,0,0,0,-5.0236,-5.0239,-5.0385,-5.0386,-5.0386,-5.0434,-5.0435,-5.0435,-5.0374,-5.0372,-5.0369,-5.0366,-5.0412,-5.0416,-5.042,0,0,0,0,0,0,0,0,0,0,0,0,0,-5.0294,-5.024,-5.0385,-5.0362,-5.036,-5.0434,-5.0435,-5.0435,-5.0375,-5.0371,-5.0368,-5.0365,-5.0411,-5.0416,-5.0421,-5.0518,0,0,-5.0436,-5.0438,0,0,0,0,0,0,0,0,-5.0291,-5.03,-5.0365,-5.0364,-5.0362,-5.0395,-5.0399,-5.0463,-5.0376,-5.0369,-5.0367,-5.0363,-5.041,-5.0414,-5.0431,-5.052,-5.0522,-5.0436,-5.0439,-5.0441,-5.0443,0,0,0,0,0,0,0,-5.0287,-5.0297,-5.0404,-5.0366,-5.0364,-5.0348,-5.0352,-5.0411,-5.0407,-5.0369,-5.0365,-5.0372,-5.0408,-5.0426,-5.0431,-5.0523,-5.0436,-5.0441,-5.0444,-5.0446,-5.0696,-5.0699,0,0,0,0,0,0,-5.0286,-5.0294,-5.0403,-5.0406,-5.0318,-5.0353,-5.0358,-5.0387,-5.0407,-5.0406,-5.0375,-5.0369,-5.0419,-5.0426,-5.0433,-5.0549,-5.0441,-5.0446,-5.0449,-5.0692,-5.0697,-5.0701,0,0,0,0,0,0,-5.0283,-5.0296,-5.0401,-5.0349,-5.0361,-5.0359,-5.0392,-5.039,-5.0408,-5.0411,-5.0409,-5.0394,-5.0417,-5.0426,-5.0498,-5.055,-5.0448,-5.0453,-5.0688,-5.0694,-5.0699,-5.0782,0,0,0,0,0,0,-5.0279,-5.0296,-5.0333,-5.035,-5.0364,-5.0466,-5.0396,-5.0393,-5.0417,-5.041,-5.0428,-5.0428,-5.0415,-5.0491,-5.0503,-5.0555,-5.0457,-5.0683,-5.069,-5.0697,-5.0774,-5.0789,-5.0802,0,0,0,0,0,-5.0274,-5.0354,-5.0336,-5.0349,-5.0411,-5.0469,-5.0477,-5.0461,-5.0422,-5.0459,-5.0461,-5.0428,-5.0542,-5.0499,-5.0512,-5.0566,-5.068,-5.0688,-5.0696,-5.0768,-5.0786,-5.0802,0,0,0,0,0,0,-5.0341,-5.0355,-5.0336,-5.0423,-5.0446,-5.0459,-5.0506,-5.0481,-5.0514,-5.0506,-5.0484,-5.0489,-5.0566,-5.0573,-5.0524,-5.0662,-5.0604,-5.0616,-5.0654,-5.0672,-5.0685,-5.0682,-5.0461,0,0,0,0,0,-5.0367,-5.0414,-5.0423,-5.05,-5.0512,-5.0508,-5.0532,-5.0518,-5.054,-5.0549,-5.0556,-5.0577,-5.0618,-5.0645,-5.0683,-5.0775,-5.0778,-5.0819,-5.0833,-5.0844,-5.0854,-5.0904,-5.0922,-5.0728,-5.0728,-5.0728,0,0,-5.0419,-5.0432,-5.0463,-5.0514,-5.0529,-5.0578,-5.0516,-5.0569,-5.0605,-5.0556,-5.0625,-5.0632,-5.0654,-5.0737,-5.0774,-5.0745,-5.0908,-5.0855,-5.0864,-5.0867,-5.0914,-5.0933,-5.0949,-5.0733,-5.0732,-5.0732,0,0,-5.0539,-5.0554,-5.062,-5.0638,-5.0663,-5.066,-5.0676,-5.0693,-5.0696,-5.0765,-5.073,-5.0771,-5.0842,-5.086,-5.0878,-5.1006,-5.0977,-5.1019,-5.1092,-5.1141,-5.1156,-5.117,-5.1216,-5.1232,-5.1029,-5.1029,-5.1029,0,-5.06,-5.0673,-5.0656,-5.0714,-5.0737,-5.0697,-5.0763,-5.0781,-5.0816,-5.0833,-5.0801,-5.0889,-5.0901,-5.0988,-5.102,-5.1036,-5.1053,-5.1017,-5.1155,-5.1169,-5.1181,-5.1225,-5.1242,-5.1034,-5.1034,-5.1033,-5.1033,0,-5.0747,-5.0799,-5.0849,-5.0887,-5.0915,-5.0976,-5.0968,-5.0999,-5.0983,-5.0983,-5.1054,-5.1068,-5.1108,-5.1127,-5.1111,-5.1212,-5.1194,-5.1159,-5.1101,-5.1205,-5.1246,-5.1262,-5.1041,-5.104,-5.1038,-5.1037,0,0,-5.091,-5.094,-5.0958,-5.0975,-5.1001,-5.104,-5.1099,-5.114,-5.1167,-5.1193,-5.1242,-5.1304,-5.1272,-5.1293,-5.1279,-5.1322,-5.1423,-5.1281,-5.1281,-5.1308,-5.1536,-5.1562,-5.1582,-5.1404,-5.1407,-5.141,-5.1534,0,-5.1031,-5.1136,-5.1123,-5.1223,-5.127,-5.1233,-5.1285,-5.1306,-5.1308,-5.1347,-5.1347,-5.1392,-5.1347,-5.1359,-5.14,-5.1402,-5.1469,-5.1393,-5.1449,-5.1451,-5.1445,-5.1603,-5.1631,-5.1747,-5.155,-5.1552,-5.1554,0,-5.1186,-5.122,-5.1325,-5.1345,-5.1364,-5.1411,-5.1448,-5.1486,-5.1509,-5.1507,-5.1531,-5.151,-5.1568,-5.151,-5.159,-5.1539,-5.1561,-5.1566,-5.157,-5.1574,-5.1509,-5.1612,-5.1784,-5.1802,-5.1579,-5.1577,-5.1575,0,-5.1295,-5.1366,-5.1439,-5.1454,-5.1479,-5.1513,-5.1525,-5.1544,-5.157,-5.1602,-5.1618,-5.1656,-5.1677,-5.1706,-5.1695,-5.1653,-5.1778,-5.1718,-5.1777,-5.1778,-5.1805,-5.1804,-5.1984,-5.1819,-5.1819,-5.1819,-5.1818,0,-5.1431,-5.1496,-5.1488,-5.1533,-5.1605,-5.159,-5.1662,-5.1668,-5.1687,-5.1731,-5.1701,-5.1743,-5.1726,-5.1767,-5.1759,-5.1827,-5.1836,-5.1836,-5.1833,-5.1839,-5.1839,-5.1853,-5.1844,-5.1823,-5.1822,-5.1821,-5.1821,0,-5.1564,-5.1562,-5.1638,-5.1656,-5.1662,-5.1715,-5.1729,-5.1771,-5.1771,-5.1827,-5.184,-5.1839,-5.1886,-5.1878,-5.1929,-5.1923,-5.2009,-5.1995,-5.2002,-5.1999,-5.2059,-5.2053,-5.2254,-5.2279,-5.2099,-5.21,-5.2102,0,-5.1652,-5.1702,-5.1726,-5.1754,-5.1769,-5.1815,-5.1842,-5.1829,-5.1857,-5.1888,-5.1926,-5.197,-5.2005,-5.2081,-5.2084,-5.2124,-5.2111,-5.2179,-5.2117,-5.2121,-5.2113,-5.211,-5.2115,-5.2191,-5.2193,-5.2195,-5.2196,0,-5.1807,-5.1803,-5.1844,-5.1885,-5.1918,-5.1949,-5.1977,-5.2001,-5.199,-5.2024,-5.2073,-5.21,-5.2153,-5.2198,-5.2235,-5.2245,-5.2219,-5.2216,-5.2232,-5.2238,-5.224,-5.224,-5.2035,-5.2211,-5.221,-5.2209,-5.2208,-5.2207,-5.192,-5.1963,-5.1988,-5.2034,-5.2054,-5.2081,-5.2121,-5.2127,-5.2167,-5.2211,-5.22,-5.2255,-5.2277,-5.2324,-5.2339,-5.2381,-5.2356,-5.2379,-5.2385,-5.239,-5.2398,-5.2234,-5.2388,-5.2387,-5.2387,-5.2386,-5.2386,0,-5.2074,-5.2088,-5.2131,-5.2172,-5.2209,-5.2183,-5.2212,-5.2244,-5.2294,-5.2317,-5.2353,-5.2409,-5.2452,-5.2459,-5.25,-5.2532,-5.2522,-5.2544,-5.2541,-5.2544,-5.2418,-5.24,-5.2552,-5.2552,-5.2552,-5.2552,-5.2552,-5.2552,-5.2158,-5.2231,-5.223,-5.2312,-5.2325,-5.238,-5.2399,-5.2424,-5.2443,-5.2507,-5.2544,-5.2549,-5.2566,-5.2608,-5.2646,-5.2647,-5.2664,-5.2691,-5.2687,-5.2569,-5.2553,-5.2537,-5.252,-5.2694,-5.2694,-5.2809,-5.281,-5.2811]}]]